Location: Chrząstowo
(52.0654°N, 17.1290°E)
Time: 04:32:09
(UTC+01:00)

Envisat - Pass Details

Date: 14 December 2019
Orbit: 764 x 766 km, 98.1° (Epoch: 19 January)

Event Time Altitude Azimuth Distance (km) Brightness Sun altitude
Rises 19:30:18 0° 226° (SW) 3,227 6.7 -34.0°
Reaches altitude 10° 19:34:37 10° 261° (W) 2,308 6.2 -34.6°
Maximum altitude 19:36:00 11° 278° (W) 2,239 6.2 -34.9°
Drops below altitude 10° 19:37:24 10° 294° (WNW) 2,313 6.2 -35.1°
Sets 19:41:46 0° 329° (NNW) 3,247 6.7 -35.7°
